Theta_e
281 277 274 272 276 275 275 274 276 277 275 274 274 272 272 271 271 272 274 277 276 273 271 271 271 270 270 271 271 272 272 272 271 271 271 272 272 272 273 273 273 274 274 276 277 277 277 278 278 277 277 277 277 277 277 277 277 276 275 276 275 276 276 276 276 276 275 275 275 276 276 277 280 280 281 281 280 281 281 282 283 283 283 283 282 283
279 275 274 275 276 277 276 274 274 274 273 274 273 271 270 271 271 274 274 276 278 273 271 272 270 270 270 271 271 272 271 271 271 271 271 271 272 272 272 273 273 273 275 276 276 276 277 277 278 277 277 279 276 277 277 276 276 276 276 275 275 276 275 275 276 276 275 275 275 274 275 276 278 279 279 279 279 281 281 281 281 282 282 282 281 281
275 273 275 275 275 276 275 274 274 273 273 272 272 271 268 271 273 273 273 276 276 274 271 271 269 269 270 271 272 271 271 272 272 272 272 271 272 272 272 272 273 273 274 275 275 276 276 277 277 277 277 277 276 276 276 276 276 276 276 275 275 275 275 275 276 276 275 275 276 275 275 276 276 279 280 280 280 280 280 280 281 281 281 280 280 280
274 276 278 276 275 275 274 274 273 272 273 272 272 271 267 271 271 267 274 276 276 273 271 272 270 270 270 271 271 272 272 272 273 273 272 273 272 272 273 272 273 273 274 274 275 275 276 276 276 277 277 277 276 277 276 277 276 277 277 275 275 274 275 275 276 278 275 276 276 276 276 276 276 276 279 278 280 279 279 278 280 280 280 280 279 279
275 277 278 274 274 273 273 274 274 272 271 271 272 270 270 270 271 271 271 274 275 274 274 272 270 270 271 270 270 272 273 273 273 273 273 273 274 274 274 274 274 274 274 274 275 275 276 276 276 276 277 277 276 276 276 277 277 277 276 276 275 274 275 275 276 274 275 275 274 275 275 276 275 275 275 275 276 278 278 278 278 279 279 279 279 279
274 277 277 274 273 273 274 273 273 272 270 270 271 273 272 271 271 272 272 272 269 268 274 272 263 264 271 271 271 271 272 271 273 272 272 273 273 273 273 274 274 276 275 275 275 276 276 276 276 277 277 276 276 276 277 277 277 276 277 276 276 275 274 275 275 275 275 274 273 273 274 273 273 273 273 273 273 275 276 276 278 279 279 279 279 278
275 275 273 273 273 273 273 272 273 273 269 266 271 274 272 272 271 271 271 269 262 262 272 272 265 260 269 268 270 270 271 271 272 272 272 273 273 273 273 274 274 274 275 275 275 275 275 276 276 276 276 276 276 278 277 277 277 277 277 277 276 275 275 276 275 275 275 274 273 273 273 273 272 272 271 272 273 274 276 277 277 278 279 279 278 278
276 273 272 272 272 272 272 271 273 273 266 267 273 272 272 271 270 270 271 270 267 273 273 271 269 261 261 269 271 271 270 271 271 272 272 273 273 273 273 274 274 274 274 275 275 275 276 275 275 276 276 276 277 277 277 277 277 276 277 277 277 277 277 276 275 275 275 275 274 273 273 276 274 273 273 273 274 275 276 276 277 277 278 278 278 278
274 273 272 272 272 272 271 273 274 273 271 271 274 272 271 271 270 271 271 268 270 265 262 268 269 259 257 266 270 271 269 270 270 271 272 273 273 273 273 274 274 274 275 275 275 275 275 276 276 276 276 277 277 277 277 277 276 276 276 277 277 277 277 275 274 276 274 275 276 273 274 273 275 275 275 275 275 274 275 273 275 276 277 277 278 278
278 275 275 273 271 271 273 273 273 274 270 271 273 273 271 271 272 272 267 267 262 262 255 265 268 259 262 268 268 270 269 269 271 272 272 273 274 274 274 274 274 275 275 276 275 275 276 276 276 276 276 276 276 276 277 276 276 276 276 276 277 276 277 276 275 274 274 274 275 274 273 273 273 274 274 274 273 272 273 273 273 275 276 277 277 277
277 281 281 274 274 275 274 274 273 274 274 274 272 270 268 269 268 267 265 259 254 255 259 266 268 264 258 264 267 267 269 270 271 271 273 273 273 274 274 274 275 275 275 275 276 276 276 276 276 276 275 275 275 275 275 275 275 275 275 275 275 275 276 276 275 275 274 275 274 274 274 273 273 273 273 273 273 273 272 272 272 273 274 275 276 277
276 273 275 276 279 275 274 275 275 274 273 272 269 268 266 266 266 264 259 258 253 252 259 267 266 265 255 261 265 271 269 269 271 271 272 272 272 273 274 274 275 275 275 275 275 275 276 275 276 275 275 275 274 274 274 274 274 275 275 274 274 275 275 275 275 275 275 275 274 274 274 273 273 273 273 272 272 273 273 272 272 272 273 273 274 275
272 274 273 274 279 276 272 269 271 271 272 271 268 267 264 255 254 256 256 257 251 254 263 265 266 262 262 266 269 270 271 272 272 273 273 273 273 273 274 274 274 275 275 275 275 275 275 275 275 274 274 273 273 273 273 273 273 274 274 274 273 274 274 275 274 274 274 274 274 274 274 274 274 274 273 273 272 273 273 273 273 272 272 272 272 273
269 269 271 273 273 276 271 268 268 267 269 270 268 260 257 255 251 251 252 253 253 261 264 264 266 263 264 266 271 271 272 273 274 273 274 273 273 273 274 274 274 274 274 274 275 274 274 274 274 274 273 273 273 273 273 273 274 273 273 273 273 273 273 274 273 273 273 273 273 273 273 274 274 273 273 273 273 273 273 273 273 273 273 272 272 272
259 263 271 271 270 273 273 270 272 269 269 269 271 265 256 250 251 254 251 254 256 259 263 265 257 253 258 264 270 272 273 273 273 273 273 273 273 273 274 274 273 273 273 274 273 273 274 274 274 273 273 272 272 272 272 272 272 272 273 273 273 272 273 273 272 272 272 272 272 273 273 273 273 273 273 273 274 273 273 273 273 273 273 273 273 273
266 264 270 274 272 273 273 275 273 270 268 271 269 269 261 258 259 256 251 250 252 256 258 255 258 258 265 270 272 270 271 271 272 271 271 272 273 273 273 273 273 273 273 272 272 273 273 273 273 272 272 271 272 272 272 272 272 272 272 272 272 272 272 272 272 272 272 272 272 272 272 272 273 273 273 273 273 273 273 273 273 273 273 273 273 273
266 266 272 273 271 272 274 274 272 271 258 266 267 258 264 270 264 254 258 262 258 253 257 253 261 264 266 267 269 270 270 271 269 271 271 272 273 273 272 273 272 271 271 271 272 272 272 272 272 272 272 271 272 272 272 272 272 271 272 272 272 272 272 272 272 272 272 272 272 272 272 272 272 272 272 272 272 272 273 273 273 273 273 274 273 273
262 266 270 269 271 274 273 272 273 272 271 265 258 266 271 271 268 259 254 249 245 250 255 259 258 262 259 262 268 269 269 270 270 270 272 272 272 272 273 272 272 272 272 272 272 272 272 272 272 272 272 271 272 272 271 271 271 271 271 271 271 271 272 272 272 271 272 271 272 272 272 272 272 272 272 272 272 272 272 272 273 273 273 273 274 274
267 261 267 270 270 273 274 271 270 272 272 269 267 271 264 254 257 259 250 252 251 249 252 257 255 259 259 262 261 263 265 267 269 270 270 271 272 272 273 272 271 271 271 272 272 272 271 271 271 271 271 271 271 272 271 271 271 271 271 271 271 271 272 272 272 271 271 271 272 272 272 272 272 272 272 272 272 272 272 272 272 272 272 273 273 273
265 260 264 270 270 272 272 270 261 266 270 272 273 270 270 262 253 255 257 252 252 251 249 255 252 259 260 260 260 265 264 267 267 265 269 271 272 272 272 271 271 271 271 272 272 271 271 271 271 271 271 271 271 271 271 271 270 270 271 271 271 272 272 272 271 271 271 271 271 272 272 272 272 272 272 272 272 271 271 272 271 271 271 271 272 271
268 266 257 266 269 269 265 270 265 266 261 264 262 259 264 256 265 262 257 256 258 248 248 247 253 260 265 263 264 267 267 268 268 269 270 271 272 272 271 272 272 272 272 272 272 271 271 271 271 271 271 271 271 270 270 270 270 270 270 271 271 271 272 271 271 271 271 271 271 271 271 271 271 271 271 271 271 271 271 271 271 270 271 270 269 271
262 266 259 262 266 265 265 270 270 269 269 267 263 260 264 256 259 255 258 255 251 253 252 248 257 262 270 267 268 270 271 269 270 269 270 270 271 271 271 272 272 272 272 272 271 271 271 271 271 271 271 271 270 269 269 270 270 270 270 271 271 271 271 271 270 270 271 270 271 270 270 271 271 271 271 270 270 270 270 270 270 270 269 269 269 270
268 264 263 261 265 266 269 270 271 270 271 269 269 266 266 257 255 251 250 252 253 254 250 253 249 260 265 267 268 270 270 269 269 269 269 270 270 271 272 272 272 272 271 271 271 271 271 271 271 270 270 270 270 269 269 269 269 270 270 270 271 271 271 270 270 271 271 270 270 270 270 270 270 270 269 269 270 270 270 269 269 269 268 268 269 269
276 256 257 263 265 265 268 269 270 269 270 268 267 266 265 257 258 260 255 249 254 252 255 251 253 261 267 260 263 264 262 261 260 266 269 271 271 272 271 271 271 271 271 271 270 270 271 270 270 270 270 270 269 269 269 269 269 269 269 270 270 270 270 270 270 270 270 270 270 270 270 269 269 269 269 269 269 269 269 268 268 268 268 268 268 268
264 264 263 254 254 260 262 263 265 267 268 264 260 265 264 260 258 252 253 253 257 256 259 254 253 260 262 261 262 265 268 269 270 270 268 269 271 271 271 271 271 270 270 270 270 270 270 270 269 270 270 269 268 268 268 269 269 269 269 269 269 269 270 270 270 270 269 269 269 269 268 268 268 268 268 268 269 268 268 268 268 268 267 268 268 268
265 263 259 259 257 256 257 256 257 255 262 264 264 263 263 260 258 259 257 254 254 256 259 251 255 266 267 261 267 269 269 269 270 271 272 271 270 271 271 270 270 269 269 270 270 270 269 270 270 269 268 268 268 268 268 269 268 269 269 269 269 269 269 269 269 269 269 269 268 268 267 267 268 268 268 268 268 268 267 267 267 267 267 268 267 267
260 264 262 259 259 261 265 265 266 267 263 261 259 262 261 261 260 258 255 252 258 254 257 260 262 265 268 269 269 269 268 269 270 271 270 270 271 271 270 270 269 269 270 269 269 269 269 268 268 269 268 268 268 268 268 268 268 268 268 268 268 268 268 269 268 268 268 268 267 266 267 267 267 267 267 267 267 267 266 266 266 267 266 267 267 266
257 261 265 264 265 268 268 268 266 269 266 267 262 262 262 261 260 260 260 260 257 253 259 265 264 262 265 268 269 270 270 270 270 270 271 271 271 270 270 270 272 270 269 269 268 268 268 268 268 268 268 268 268 268 268 268 268 268 268 267 268 268 268 268 268 267 267 267 266 266 266 266 267 266 266 266 266 266 265 266 266 266 266 266 265 265
259 260 258 261 263 266 266 266 266 265 265 266 266 265 263 263 260 260 262 265 261 260 261 266 264 261 266 268 270 271 271 271 271 271 272 271 270 269 269 268 268 268 268 267 268 267 267 267 267 267 267 268 268 267 267 267 267 267 267 267 267 267 267 267 266 266 266 265 265 265 266 266 266 266 265 265 265 265 265 265 265 265 265 265 266 266
264 259 256 258 263 266 267 267 267 265 265 265 264 265 266 263 262 263 264 265 264 263 266 266 266 266 268 269 271 272 272 272 272 272 271 269 269 268 268 267 267 267 267 267 267 267 267 267 267 267 267 267 267 266 266 267 267 266 266 266 266 266 267 267 266 265 265 265 265 265 265 265 264 264 264 264 264 264 264 264 264 265 265 266 265 264
266 258 266 258 258 263 264 262 262 263 262 262 265 265 265 265 264 264 264 264 264 264 265 265 264 264 269 271 271 272 272 272 270 268 269 269 268 268 267 267 267 267 267 267 267 268 267 267 267 267 267 267 266 266 266 266 266 265 265 265 265 266 266 266 264 264 264 264 264 264 264 263 263 263 263 264 264 263 263 264 264 265 265 264 263 263
264 258 257 253 258 261 261 261 262 262 262 262 263 265 265 264 261 263 261 264 262 262 263 261 260 262 268 271 270 270 270 269 267 268 268 268 269 268 267 266 266 266 267 267 268 267 267 266 266 267 266 266 266 265 265 266 265 265 264 265 265 266 265 264 264 263 263 263 263 263 263 263 263 263 263 263 263 263 263 264 265 264 262 262 262 262
261 258 259 255 259 260 262 261 261 262 263 263 267 268 268 267 265 263 264 264 265 266 262 260 263 269 270 269 267 269 268 268 268 268 269 270 269 268 267 267 267 267 267 267 267 267 267 267 267 267 267 267 266 265 266 266 265 265 265 265 266 265 264 263 263 262 262 262 262 263 263 263 262 262 262 262 262 263 264 265 263 262 260 260 261 261
257 259 253 258 258 255 258 260 261 261 258 264 269 265 267 264 263 262 264 264 265 266 265 268 269 270 269 269 268 269 269 270 270 271 272 270 269 268 268 267 267 267 267 267 267 267 267 267 267 267 267 266 266 266 266 266 265 265 266 266 265 264 263 262 262 261 261 262 263 263 262 262 261 261 261 262 262 264 263 261 260 260 260 261 261 261
259 258 257 252 256 257 255 260 261 257 262 268 264 265 264 264 266 267 268 267 267 266 267 267 268 269 270 271 270 270 271 271 272 271 271 271 269 269 268 268 268 267 267 267 267 266 267 267 266 265 264 264 265 266 265 265 265 265 266 266 264 263 262 260 260 261 261 262 262 262 262 261 261 260 261 261 263 263 261 260 260 260 260 260 260 260
259 260 254 257 250 253 257 250 250 263 267 268 270 268 266 265 264 263 264 267 266 267 267 266 268 269 270 270 270 271 270 270 269 269 269 270 270 269 268 268 268 268 267 267 267 267 267 266 265 265 265 266 265 265 264 264 265 265 265 264 262 261 260 260 260 261 262 261 261 261 261 260 260 260 261 262 263 261 260 260 259 259 260 260 260 261
267 258 259 260 257 256 253 251 263 266 267 271 270 263 265 264 262 262 259 269 265 266 267 267 268 269 269 269 270 270 268 266 266 267 269 269 269 270 269 269 269 269 268 267 267 267 267 265 264 265 265 265 265 264 263 264 265 265 263 261 260 259 260 260 260 261 261 261 261 260 260 260 259 260 261 262 261 260 259 259 259 259 259 259 260 260
268 267 264 262 261 256 257 257 257 257 258 267 267 264 265 264 265 264 261 265 267 265 269 268 268 269 269 269 268 267 264 264 264 267 268 269 270 269 270 269 269 268 268 267 267 266 265 265 265 266 266 265 264 264 263 264 264 263 261 260 260 260 260 260 260 260 260 260 260 260 259 260 260 259 261 261 260 259 259 259 259 258 259 259 259 260
264 265 264 266 261 254 256 253 251 251 264 269 266 266 266 264 266 264 264 264 271 269 268 269 268 269 269 268 268 264 262 261 264 268 268 268 268 269 268 269 269 269 268 268 266 265 265 265 265 265 265 264 262 263 263 262 262 261 260 260 260 259 259 259 259 260 260 260 260 259 259 259 260 261 261 259 258 257 257 258 258 258 259 259 259 259
264 256 259 260 258 258 254 252 258 256 262 265 263 264 266 266 267 267 260 263 267 267 268 268 268 268 269 269 267 263 263 261 265 270 269 269 270 270 269 269 269 268 267 266 265 265 266 266 265 264 264 263 263 263 262 261 261 261 261 260 259 259 258 259 259 260 260 260 259 259 259 259 260 261 259 257 257 257 257 257 257 257 258 258 258 258
258 259 259 263 261 259 261 258 254 262 269 268 264 266 267 267 268 260 259 269 269 268 268 269 269 270 270 268 266 263 266 269 271 273 272 269 269 269 269 270 269 268 266 265 265 267 265 264 264 264 264 264 263 263 262 262 261 260 260 259 258 258 258 259 260 260 259 259 259 258 259 260 260 258 257 256 256 256 257 257 256 256 256 256 257 257
256 255 256 254 257 260 258 257 260 262 269 267 266 268 269 267 259 261 272 272 269 269 268 269 270 270 269 269 268 269 271 272 272 273 272 271 270 269 269 268 267 266 266 266 266 265 264 263 263 263 263 263 263 263 262 261 260 259 258 258 257 258 259 259 259 259 259 258 258 258 259 260 258 257 256 256 256 255 255 256 255 256 255 256 257 257
264 261 258 255 255 255 253 252 255 257 266 268 268 266 268 264 268 275 273 269 270 270 269 269 269 270 270 269 270 270 270 271 271 271 271 270 269 268 268 267 266 265 265 264 264 264 263 262 262 262 262 262 262 262 262 260 259 258 257 257 257 258 258 258 258 258 258 258 258 258 258 258 256 256 255 256 255 254 254 255 254 254 255 255 256 255
265 263 258 256 260 256 254 254 259 269 268 269 270 266 267 271 276 274 272 274 271 269 270 272 271 271 271 271 271 272 272 271 271 271 270 269 268 268 267 267 266 265 264 264 264 263 262 262 262 262 262 262 262 261 261 259 258 257 257 257 258 258 258 257 257 257 256 257 258 258 257 255 254 253 253 254 254 254 253 254 254 255 255 255 255 255
269 269 266 267 261 264 265 264 270 268 268 270 272 276 274 273 275 275 274 273 273 273 273 272 273 273 273 272 272 272 271 271 270 270 268 268 267 267 266 266 266 265 264 263 262 263 261 261 261 261 261 261 260 260 259 258 257 257 256 257 257 257 257 257 257 256 256 256 255 255 254 253 252 252 252 253 253 253 254 253 254 254 255 255 255 255
271 271 267 266 266 269 272 273 274 274 271 269 272 273 274 274 274 274 273 272 274 275 275 274 274 274 274 273 271 271 271 270 269 268 267 267 266 267 267 266 265 264 263 262 262 261 261 260 260 260 259 258 257 258 258 258 256 255 256 256 256 256 256 256 256 256 256 254 254 254 253 251 252 251 252 252 252 253 253 254 254 254 254 255 254 254
269 268 268 266 268 266 266 274 273 274 275 273 272 273 274 274 274 275 274 274 274 275 275 275 275 274 274 273 271 271 271 270 268 268 267 266 266 266 266 265 264 263 262 262 262 261 260 258 258 258 257 257 257 256 256 256 256 255 256 255 256 256 256 255 256 256 255 253 253 253 252 251 251 252 252 250 250 252 253 253 253 253 254 254 254 254
269 270 268 270 269 266 269 274 275 276 276 275 274 273 273 274 275 275 275 275 275 276 275 275 275 274 273 271 271 270 269 269 267 267 267 267 266 266 265 264 263 262 262 263 262 260 258 258 258 257 257 257 257 256 256 255 255 255 255 255 256 255 254 255 255 255 254 253 253 253 252 251 254 254 251 251 250 251 251 252 252 253 253 254 254 253
270 270 267 267 266 270 272 274 274 275 276 276 276 275 275 276 276 276 276 276 275 275 275 275 275 273 272 272 271 269 268 268 268 267 267 266 266 265 264 263 263 262 262 261 260 259 258 257 257 256 256 256 256 256 255 255 255 254 255 256 255 254 253 254 255 256 254 253 252 251 252 252 251 251 251 250 250 250 251 251 252 253 253 254 255 255
270 270 268 267 268 269 269 273 275 271 271 275 277 278 277 276 275 275 275 274 274 273 274 273 273 272 271 271 270 269 268 268 268 267 266 266 266 266 265 263 262 262 261 261 260 258 257 256 256 256 256 256 256 256 255 254 254 254 255 254 254 253 253 254 254 253 252 251 251 250 250 250 250 248 250 249 249 250 251 255 256 255 254 254 257 259
270 272 270 267 269 270 275 277 277 276 275 276 277 278 278 276 273 273 273 274 274 274 273 271 270 270 270 269 270 268 268 268 267 268 267 266 265 265 264 262 261 261 260 258 257 256 255 256 256 255 255 255 255 255 255 254 254 253 254 254 253 252 252 252 252 253 252 252 250 252 251 251 249 248 247 247 248 248 249 250 252 256 257 257 257 258
Wind_Speed
0 12 8 4 2 5 6 3 0 1 2 2 1 1 1 1 4 4 2 1 6 9 6 5 7 5 1 0 2 2 2 1 3 4 3 3 3 3 4 4 4 5 4 5 6 5 6 6 6 6 5 4 6 4 5 7 7 6 8 8 10 9 9 9 10 10 10 12 11 10 11 10 8 9 9 9 10 10 10 11 11 12 12 12 13 13
4 14 6 2 2 1 2 3 3 5 3 3 2 1 2 2 10 8 0 5 6 7 2 4 6 4 1 1 2 2 2 2 2 2 3 2 2 2 3 4 4 4 4 4 5 6 5 6 7 6 5 6 9 10 8 8 8 6 6 6 7 7 7 7 7 7 7 7 6 6 8 8 8 8 8 9 9 9 9 12 12 11 11 10 12 13
12 8 3 3 3 2 1 3 2 6 4 2 5 2 2 8 3 3 2 8 6 8 4 4 2 3 2 1 2 1 1 1 2 1 1 0 2 2 2 3 4 4 5 5 4 4 5 7 7 6 5 5 4 5 6 6 7 7 6 5 5 5 6 6 6 6 6 5 6 6 6 7 6 4 5 4 6 7 8 8 10 11 11 11 10 13
8 2 1 3 0 3 2 5 4 3 4 8 9 10 5 5 7 5 1 11 9 3 6 7 3 3 3 2 2 3 3 2 3 2 3 2 1 1 3 3 3 4 5 6 6 7 7 5 6 6 6 6 6 6 6 7 8 7 7 5 5 5 4 5 5 4 5 5 6 6 5 6 5 5 6 4 4 7 9 11 9 9 11 11 11 12
6 1 1 1 2 2 7 8 11 8 8 3 6 3 4 6 3 2 5 6 2 6 6 5 1 2 6 4 4 4 4 3 4 3 2 3 4 4 4 4 3 3 4 5 6 6 6 6 7 7 7 6 6 7 7 7 8 6 9 7 5 5 4 4 4 5 4 4 5 5 5 3 3 3 4 5 6 6 7 8 9 9 9 10 10 10
6 1 1 0 3 6 8 12 9 3 7 6 0 3 4 4 5 5 6 3 4 2 2 3 7 5 5 7 7 4 3 4 4 3 4 3 4 3 4 5 4 5 3 4 5 6 6 6 6 7 7 6 6 6 6 6 7 7 8 8 7 5 4 4 4 4 3 4 5 6 7 8 8 9 9 10 10 10 9 8 6 6 8 8 8 9
2 3 2 2 5 7 7 6 2 2 2 4 6 2 4 3 3 4 4 2 3 1 3 4 7 9 4 6 7 5 5 8 4 4 5 4 4 4 4 4 5 5 5 4 4 5 5 7 5 7 6 6 6 7 5 5 6 8 8 7 7 6 6 4 4 4 3 3 3 4 4 4 5 6 4 4 5 4 6 5 5 5 4 5 6 7
2 4 5 4 6 7 7 9 6 3 2 1 4 5 5 3 2 2 1 1 4 1 1 5 3 3 7 4 4 6 7 7 7 7 7 6 5 5 5 5 5 6 5 4 6 6 6 6 5 7 7 6 7 7 6 6 7 8 9 9 9 7 6 5 4 4 3 3 3 3 3 4 4 4 5 5 6 5 5 5 5 4 3 3 3 5
2 3 4 5 6 8 6 0 2 1 1 2 8 6 8 5 3 1 0 1 0 3 3 8 6 2 4 5 3 4 6 8 10 9 8 7 7 7 7 7 6 6 6 5 6 6 7 7 7 7 6 6 6 6 6 7 7 7 7 8 8 10 9 7 4 3 4 3 3 3 3 4 4 3 5 4 4 5 5 5 5 4 3 2 2 2
1 1 0 3 5 4 1 1 2 3 5 5 7 8 1 2 1 1 2 0 3 3 4 2 5 1 9 2 1 3 6 10 9 10 10 8 8 7 7 6 7 6 5 5 5 6 7 7 6 6 5 5 5 5 5 6 6 7 6 7 9 10 9 7 6 4 6 4 4 5 4 4 6 4 5 4 6 4 4 5 5 5 5 3 2 2
1 3 3 4 1 0 0 0 1 4 1 5 2 3 3 4 4 4 6 2 5 1 5 4 1 5 6 5 6 6 8 7 5 3 5 5 6 7 7 7 6 6 6 6 6 6 7 7 6 4 5 5 5 5 6 6 6 6 6 6 7 9 8 7 6 5 7 7 5 6 6 6 7 7 5 6 6 5 4 5 5 5 5 5 5 2
1 3 2 1 2 2 2 0 1 0 1 4 4 3 3 1 8 3 6 5 2 4 5 4 2 3 2 8 5 9 3 4 7 7 8 9 9 8 6 6 6 6 6 6 6 7 7 7 7 6 6 6 6 6 6 5 5 5 5 6 6 7 8 7 7 7 8 7 7 6 7 7 8 7 6 7 8 7 6 5 5 5 5 6 5 4
3 2 2 5 3 2 0 2 4 4 7 8 3 7 7 4 5 2 7 5 1 3 1 2 6 6 7 11 7 3 10 8 8 9 10 9 9 8 7 7 6 5 5 6 7 6 6 6 7 6 6 5 5 6 6 6 4 4 5 6 6 8 7 7 6 6 6 6 7 7 8 7 7 7 8 8 8 8 7 6 6 5 6 6 5 6
3 2 3 3 3 1 3 5 5 5 5 7 5 2 6 5 4 2 5 2 5 4 3 2 3 4 6 9 9 11 10 11 10 10 8 8 8 8 8 7 5 5 6 7 7 6 7 7 6 5 5 4 5 5 6 5 4 4 5 6 6 8 6 5 5 5 6 6 6 6 6 7 6 7 7 7 7 8 7 6 6 6 6 6 6 6
1 3 1 0 0 1 3 3 0 3 0 2 0 2 4 6 2 2 1 2 5 8 5 2 2 7 3 7 1 9 4 5 6 6 6 6 7 8 7 6 6 7 6 6 5 6 7 7 6 5 5 4 4 5 5 4 4 4 5 6 7 7 7 6 5 4 5 5 5 5 5 5 5 6 6 6 6 7 8 7 6 6 6 6 6 6
2 4 2 1 1 1 2 0 1 2 1 0 3 4 6 1 4 1 5 3 4 6 10 1 5 4 4 3 3 2 2 3 3 5 4 7 8 7 6 8 8 6 6 5 5 7 8 7 5 4 4 4 4 6 4 4 4 4 5 6 6 6 6 6 5 6 5 5 4 4 5 6 5 5 5 5 6 6 6 7 7 7 6 6 6 6
2 2 1 3 6 3 0 1 3 1 0 1 3 1 2 3 5 1 2 1 1 2 9 2 8 6 7 4 4 3 3 8 3 8 7 10 10 7 8 8 6 6 5 5 5 6 7 6 5 5 4 4 4 5 5 4 4 4 5 6 7 7 6 6 6 7 6 6 6 6 4 5 5 6 6 6 6 7 6 6 6 6 7 6 6 6
1 4 1 3 1 1 1 2 3 4 1 3 3 3 1 2 4 4 2 3 4 1 8 1 6 10 7 11 3 4 6 9 8 9 11 10 9 9 10 7 6 6 6 6 7 7 7 6 6 5 5 5 5 6 5 5 4 3 4 5 7 7 8 8 7 6 6 7 8 7 7 5 5 5 5 6 6 6 6 7 6 6 7 6 7 6
3 3 2 1 2 1 2 2 3 1 2 3 5 2 2 1 2 3 4 3 2 4 6 7 4 8 6 11 3 5 5 10 10 11 8 11 12 13 11 8 7 6 7 7 7 6 6 6 5 5 6 5 6 6 5 5 4 3 4 5 5 7 8 9 7 4 4 4 5 6 7 7 7 6 6 6 6 6 7 8 6 6 5 6 5 6
2 2 3 0 2 0 1 3 2 3 2 2 1 2 0 4 2 1 2 3 6 5 3 10 3 10 6 7 8 9 7 8 9 6 10 14 14 11 8 7 7 7 8 7 7 6 6 6 6 6 6 6 7 6 5 4 3 4 4 5 6 8 9 9 7 5 6 6 6 7 7 7 7 8 8 8 8 8 8 7 6 5 5 5 5 6
2 1 2 1 2 1 1 3 6 8 3 1 4 1 2 1 3 4 0 4 4 3 3 2 9 9 10 8 5 10 9 9 8 10 9 10 11 10 9 8 7 7 8 8 7 6 6 6 6 6 6 6 5 4 3 3 4 4 4 5 6 9 11 11 6 5 5 6 7 8 9 9 8 9 8 8 9 10 9 8 6 5 5 4 6 6
2 1 3 2 2 3 5 1 4 7 6 7 8 5 7 5 1 0 9 1 1 3 4 2 13 10 17 6 8 10 11 7 8 9 9 8 9 8 8 7 7 8 8 8 7 6 6 6 7 6 5 4 4 4 4 4 3 4 5 5 7 9 9 9 5 5 7 5 6 8 10 10 9 9 8 9 9 9 10 8 6 5 5 6 7 6
3 2 3 3 6 4 1 3 2 2 3 3 6 5 5 3 6 4 1 5 1 4 3 2 1 18 3 6 6 8 6 6 6 5 9 8 8 8 8 8 8 8 9 8 7 6 6 7 7 7 6 6 5 4 4 3 3 4 5 7 7 9 9 6 6 6 7 8 9 10 10 11 10 8 9 10 10 11 9 6 5 6 7 8 8 8
4 1 1 6 4 3 2 1 3 5 4 2 1 3 6 4 7 9 6 4 5 1 1 1 4 17 11 1 4 1 2 2 4 5 9 8 6 7 8 8 9 9 8 7 6 6 7 7 7 6 6 6 4 3 4 4 4 4 5 7 8 8 7 5 5 6 7 10 11 11 11 9 8 9 10 11 10 10 7 6 7 6 8 10 9 10
1 3 4 2 5 5 3 3 2 3 1 3 3 5 2 4 6 2 5 0 1 9 11 10 12 15 3 1 2 1 3 5 8 9 7 9 7 7 8 7 7 7 6 6 7 7 7 7 7 7 6 5 4 4 4 4 4 4 6 6 7 6 4 5 6 8 10 10 12 10 9 8 8 10 11 11 10 9 9 9 9 8 10 10 10 9
1 3 3 0 3 5 7 5 5 4 7 3 2 4 4 10 9 4 3 1 4 4 10 4 11 19 9 3 2 5 6 8 9 9 8 7 8 9 7 6 6 6 7 7 8 7 8 8 7 6 6 5 4 4 4 4 4 5 6 6 5 4 5 7 8 9 10 9 9 9 9 9 9 11 12 12 11 11 10 10 10 10 9 9 10 10
1 1 3 7 7 9 10 6 2 4 2 3 6 5 6 3 6 4 5 5 11 2 7 17 16 19 24 22 12 10 7 12 12 9 8 8 7 7 6 6 6 6 8 9 8 8 6 6 8 8 7 6 5 5 5 5 5 6 5 5 4 4 6 8 8 8 8 8 8 7 9 10 11 11 11 11 11 10 9 9 10 10 10 9 10 10
2 1 7 6 9 13 8 8 3 1 6 8 8 8 7 7 11 9 10 11 6 4 14 20 15 14 25 23 18 16 11 9 8 8 10 9 8 6 6 6 8 7 7 6 6 8 9 9 8 8 7 6 7 6 5 5 6 6 5 6 5 6 7 7 7 7 7 7 8 8 10 10 11 11 11 9 9 9 9 9 9 9 10 9 10 9
3 2 7 6 11 11 11 11 7 6 5 9 10 9 8 10 11 15 18 15 7 9 19 27 4 7 19 18 21 19 18 14 12 13 12 9 6 5 5 7 8 9 8 8 8 8 8 9 9 8 7 7 6 7 7 7 6 5 5 5 6 6 7 7 6 6 5 6 8 9 10 10 10 9 9 9 8 8 9 10 10 10 9 9 8 6
2 5 3 2 6 9 12 8 7 8 7 8 13 14 13 11 18 19 21 15 16 18 24 21 21 25 26 22 24 24 17 13 13 10 8 8 9 6 7 9 9 10 9 9 9 9 8 9 9 8 7 7 7 7 7 7 7 6 6 6 6 7 7 6 6 5 5 7 9 9 10 11 9 8 7 7 9 10 10 9 9 9 8 5 5 7
3 5 5 0 2 8 5 3 3 3 3 10 16 13 15 14 14 18 16 16 11 18 25 25 22 24 26 22 20 18 14 11 8 8 11 9 8 10 9 9 9 9 9 9 9 10 9 9 8 7 7 7 7 8 8 7 7 6 6 6 7 7 7 4 5 5 6 8 8 9 10 10 8 6 7 9 10 10 10 10 9 7 4 5 6 8
1 4 2 2 2 8 2 3 3 3 3 9 19 24 20 15 11 14 12 15 9 18 18 10 11 18 23 19 8 9 9 8 10 9 10 10 8 10 11 9 8 9 10 11 10 9 9 8 8 8 7 7 7 7 7 8 8 6 7 6 6 7 5 4 4 6 7 7 8 9 10 8 6 7 10 10 10 10 10 10 7 5 5 6 7 8
4 4 2 1 1 8 2 2 4 6 8 12 19 17 18 12 12 4 7 7 15 13 9 11 17 19 14 3 5 10 8 10 10 11 12 13 9 7 9 11 10 9 10 10 11 10 9 8 8 7 7 6 6 6 7 8 8 7 6 6 7 5 4 5 5 6 7 8 9 10 7 5 7 9 10 10 10 10 10 6 5 6 6 7 7 7
3 5 1 2 2 6 3 7 3 7 9 18 4 4 7 8 10 10 12 13 16 11 13 12 15 12 10 12 12 16 16 16 13 12 9 8 10 10 8 8 9 10 10 10 10 9 8 6 6 6 6 6 7 7 8 7 8 7 5 6 6 5 5 5 6 6 8 9 10 7 4 6 8 9 9 9 10 10 5 5 6 6 6 7 7 8
5 3 3 2 1 6 4 7 9 10 17 7 5 2 3 3 6 14 18 10 11 14 18 18 21 20 21 17 15 16 16 17 14 11 11 7 6 9 12 11 11 11 11 10 8 6 7 6 6 5 5 5 6 7 7 7 5 4 6 6 7 5 5 5 6 7 8 9 8 5 6 7 7 9 9 10 10 7 5 6 7 8 7 8 8 9
6 5 3 0 2 2 2 2 0 17 8 9 14 7 2 1 1 1 14 16 17 19 18 18 22 20 18 17 16 14 14 14 10 8 9 9 9 11 12 12 11 10 9 7 6 4 4 4 5 6 6 5 5 6 5 5 3 5 7 6 5 5 5 6 7 9 8 8 7 6 6 7 8 8 9 11 8 5 7 7 8 9 8 8 9 9
10 4 4 3 2 4 4 5 15 13 24 27 13 1 6 5 5 5 6 14 7 10 12 15 19 17 16 16 14 12 5 6 10 13 7 12 13 12 13 12 10 8 6 4 3 4 3 3 3 5 5 5 5 6 4 3 4 6 6 5 5 5 5 7 8 9 9 9 7 6 6 7 8 9 10 9 6 6 7 9 9 9 8 9 9 10
5 7 4 4 4 5 6 9 7 6 11 16 4 2 1 1 4 3 4 15 7 9 12 14 16 16 15 13 10 5 3 6 14 12 5 10 11 11 9 8 5 4 3 4 3 2 3 3 3 4 5 6 6 4 3 4 5 5 6 6 5 5 6 7 9 9 9 8 7 6 6 6 8 9 10 7 6 8 8 8 8 8 7 9 10 11
4 4 3 8 4 4 1 4 5 5 18 8 2 1 3 2 5 3 5 16 11 7 13 14 15 14 13 11 9 3 1 6 15 14 3 7 6 6 8 7 6 6 4 4 4 4 4 4 4 5 5 5 5 4 4 4 5 6 7 5 4 4 6 7 9 9 9 8 7 6 6 6 8 9 7 5 7 6 8 8 8 8 8 9 9 10
2 1 2 2 6 7 3 2 11 5 13 2 4 3 5 4 2 4 10 13 5 7 9 12 14 13 11 10 5 4 6 9 14 14 2 9 8 8 7 8 6 4 4 4 3 4 4 4 4 5 6 6 6 4 4 4 5 6 6 5 4 5 6 8 9 9 8 8 7 6 7 7 8 7 4 6 6 7 7 7 7 8 9 9 8 9
2 2 4 14 8 5 8 9 5 11 12 7 8 7 7 5 1 1 11 18 3 9 8 10 12 12 9 7 7 7 11 14 16 15 6 6 6 7 7 6 6 5 5 4 5 4 4 4 5 6 7 5 5 4 4 5 4 5 4 4 5 6 7 8 8 8 8 8 7 6 7 8 7 4 5 5 6 6 7 7 7 8 8 9 8 8
2 1 2 3 5 11 6 7 12 9 16 7 3 14 8 3 2 10 10 2 6 6 7 10 10 9 8 10 8 11 13 12 12 10 9 7 6 5 5 6 5 4 4 5 5 4 4 4 4 6 5 4 5 6 5 4 5 6 5 5 6 7 7 7 7 8 8 8 8 7 8 8 3 4 5 5 5 6 8 7 7 7 8 8 8 10
7 7 6 6 3 2 2 2 5 10 4 9 13 3 2 5 10 9 3 3 3 3 7 7 9 9 7 10 12 14 14 14 13 11 10 6 5 6 5 5 6 6 6 5 4 4 4 5 5 6 5 5 5 5 5 4 5 6 5 7 8 6 6 6 7 8 7 7 8 9 7 4 4 5 4 6 6 7 8 7 7 7 7 8 8 9
5 2 3 5 7 4 6 6 10 10 2 14 15 6 9 18 13 3 1 10 4 5 4 6 8 10 10 11 13 13 12 11 10 8 7 6 5 4 4 5 5 5 4 4 4 5 4 5 5 5 4 5 5 4 4 4 7 6 7 9 6 6 6 7 7 6 6 7 8 6 4 4 4 4 4 5 6 7 7 8 7 7 7 7 7 7
10 8 7 7 4 7 11 12 8 1 8 14 11 13 6 11 13 13 9 9 11 9 5 5 11 10 9 11 12 12 11 10 12 9 7 8 5 5 6 7 6 7 5 5 5 5 4 6 7 6 5 5 5 5 5 4 6 7 8 7 5 6 7 7 7 5 7 7 5 5 6 6 5 4 5 5 5 6 7 7 7 8 6 6 6 7
2 4 2 0 9 6 13 16 14 14 8 11 15 14 15 14 10 8 11 13 13 14 11 10 11 11 10 7 8 9 11 11 9 8 6 5 5 6 6 5 5 4 4 4 4 4 5 5 5 5 6 5 5 6 4 5 5 8 9 6 5 6 7 7 7 7 8 5 5 7 7 6 5 5 5 5 5 5 5 6 7 8 8 7 7 6
2 2 2 4 3 6 12 8 6 10 12 7 13 16 16 15 17 16 13 13 16 16 15 12 12 12 11 7 8 11 13 7 6 7 5 5 6 7 6 6 6 5 5 5 5 4 4 4 5 6 6 7 5 5 5 5 6 7 7 6 7 6 6 7 7 8 7 6 7 7 6 5 5 5 5 4 4 4 4 5 6 7 7 7 6 5
4 4 1 11 9 7 18 19 18 21 21 14 10 12 14 17 17 16 15 14 15 14 13 14 11 11 7 7 9 9 11 5 4 7 6 5 5 5 5 5 6 4 4 5 5 4 4 5 6 7 6 7 7 5 5 5 6 7 7 6 6 7 6 6 7 7 6 7 7 7 6 5 7 7 5 5 5 4 5 5 5 6 7 7 7 7
2 3 7 1 3 13 14 17 18 17 19 16 9 11 13 13 13 14 12 12 12 12 13 11 7 8 6 9 5 5 7 7 5 6 7 5 4 4 6 6 5 6 5 5 4 4 6 5 6 7 7 8 6 6 5 6 6 6 7 7 6 6 6 7 8 8 7 7 7 7 5 5 4 5 5 5 4 4 5 6 6 7 8 7 6 7
3 8 3 2 10 13 12 15 14 15 17 20 24 21 11 8 10 12 10 9 9 9 9 10 9 4 4 5 5 4 7 7 5 4 7 6 6 5 5 5 5 6 5 4 4 4 5 6 7 7 8 8 6 6 6 6 6 6 6 6 6 6 6 7 7 6 7 6 6 6 5 5 5 4 5 5 4 5 5 6 10 9 8 9 12 16
4 8 2 5 8 14 19 22 19 15 17 18 20 18 15 8 4 9 12 12 11 9 5 5 8 7 5 5 3 4 7 7 7 5 6 5 6 6 5 5 5 4 4 4 3 4 5 6 6 7 8 8 6 6 6 6 6 5 6 6 5 6 7 6 6 6 7 6 6 6 5 5 5 6 5 4 4 4 6 7 6 9 14 15 15 15
Wind_Direction
341 67 57 103 62 352 330 355 312 72 129 105 75 99 271 251 264 260 299 124 130 84 65 84 103 96 84 303 280 278 294 22 48 46 25 21 4 5 358 356 344 347 334 318 312 321 329 334 334 329 328 332 327 334 346 348 353 356 355 353 360 354 356 2 3 5 4 2 358 3 7 2 1 4 1 4 7 9 7 6 9 12 14 13 11 10
49 66 15 303 205 67 320 317 101 56 49 98 126 65 336 26 352 316 312 340 351 111 161 147 108 96 205 307 298 296 284 31 25 23 38 341 347 331 337 338 338 299 283 304 330 338 345 344 343 339 340 343 356 346 346 352 345 339 345 357 341 348 352 360 0 357 359 358 354 340 340 347 344 0 1 2 5 0 3 13 17 14 10 9 12 7
52 76 341 293 255 219 7 30 64 123 98 66 70 302 12 1 301 315 103 4 8 83 181 191 117 147 186 239 263 256 312 279 258 244 236 187 320 320 314 309 311 327 324 331 312 316 328 332 333 340 333 338 336 320 334 331 338 336 344 340 342 337 347 344 346 356 355 338 340 348 326 341 333 338 356 356 1 358 4 11 20 19 18 16 19 11
69 30 248 325 110 194 33 63 92 92 79 46 18 32 360 290 23 316 38 12 353 92 175 189 139 169 201 213 244 262 246 243 235 234 247 214 278 293 291 279 300 316 316 325 328 322 326 325 319 326 330 331 330 338 339 346 341 334 333 330 332 328 331 331 330 347 331 326 324 324 313 324 335 330 338 341 348 4 8 16 16 22 20 18 20 18
120 262 272 49 341 119 66 29 35 33 20 4 70 43 337 335 316 199 295 347 291 24 98 134 150 194 198 223 217 231 227 246 255 244 254 273 231 240 266 274 258 268 288 303 316 318 317 325 322 319 315 322 333 334 341 343 339 336 328 322 317 315 314 312 318 325 320 324 336 323 315 296 312 321 344 353 5 13 9 8 12 17 20 19 19 20
56 327 118 355 53 47 59 39 23 47 16 344 224 69 294 290 291 286 291 337 27 313 219 179 4 298 180 212 219 206 213 240 228 211 237 239 256 249 261 256 263 269 254 266 285 295 302 304 310 315 316 321 322 327 337 333 324 328 325 324 316 305 301 300 306 310 321 336 341 348 355 0 6 4 5 6 356 354 2 4 357 5 19 18 18 19
129 349 76 99 68 57 62 86 21 60 74 57 310 9 317 264 273 279 312 65 9 87 332 30 86 282 138 237 201 212 212 233 250 210 247 246 248 250 253 259 269 270 288 282 276 285 299 298 306 305 309 310 317 323 328 323 323 327 327 323 316 306 295 286 289 306 311 331 343 341 343 347 349 355 336 329 326 340 331 348 350 357 8 15 16 13
43 353 32 34 57 58 49 37 348 56 84 319 274 339 326 328 296 269 34 122 206 327 253 37 66 247 306 257 191 196 219 231 237 235 231 235 240 251 254 258 262 268 264 271 283 285 285 287 287 292 297 307 319 318 322 326 327 330 327 327 325 315 303 286 280 296 291 302 313 320 323 320 331 321 309 318 317 319 325 339 342 349 350 7 15 17
115 353 15 32 51 54 51 101 283 35 112 237 303 333 306 295 258 271 121 168 224 86 291 4 335 61 256 252 153 183 234 240 236 228 226 228 233 242 252 258 262 259 261 262 274 278 281 286 290 288 300 309 317 323 323 320 321 323 326 328 327 323 317 304 288 288 295 282 286 276 286 310 299 287 293 300 306 316 318 331 328 339 340 351 6 25
337 145 212 108 78 47 253 235 213 54 39 291 300 317 340 65 51 124 109 83 341 64 278 349 315 49 283 200 282 200 231 256 236 217 220 217 225 238 249 264 266 267 270 270 262 268 276 278 281 284 300 312 313 313 313 318 327 328 329 330 335 328 326 315 304 299 293 284 284 295 294 290 300 296 294 299 302 305 315 321 318 324 332 334 350 6
147 286 202 64 28 209 234 258 177 84 114 282 346 333 358 43 45 45 56 85 55 17 253 162 336 116 299 248 211 158 222 201 214 215 219 226 230 240 247 254 265 271 273 274 277 277 275 276 280 297 307 301 309 317 323 325 325 322 321 324 332 325 329 331 322 320 306 310 301 295 298 298 297 299 295 306 303 302 313 310 310 318 314 323 329 339
2 350 43 305 28 4 73 222 45 17 257 35 16 330 4 353 16 29 356 27 87 279 243 169 171 143 183 288 263 236 237 185 182 212 212 215 222 230 240 248 255 262 265 271 277 279 284 296 301 317 317 314 308 314 319 315 316 315 315 320 325 328 335 335 335 337 329 326 315 309 303 301 298 303 305 303 301 302 296 293 294 299 314 310 315 318
44 41 337 325 308 30 344 57 317 19 17 19 8 14 66 295 36 343 11 2 189 194 214 184 13 3 231 226 246 252 228 225 209 212 215 214 223 230 240 243 249 257 268 271 270 274 280 281 288 299 297 303 307 311 306 308 308 315 318 321 327 325 332 332 331 335 335 338 337 334 330 322 314 312 306 302 301 300 299 295 295 302 299 304 322 312
276 289 343 252 8 333 94 74 321 6 353 12 32 62 57 26 31 313 277 220 298 279 248 44 77 234 251 282 243 240 232 217 210 215 217 211 220 228 237 246 252 261 266 269 270 271 271 271 274 270 271 273 289 299 298 301 311 318 321 323 324 320 322 327 334 336 338 336 333 337 337 332 331 322 315 310 309 310 308 301 294 292 290 292 286 297
33 335 271 76 17 20 60 144 171 197 32 343 295 107 157 140 149 305 246 312 269 269 280 20 67 234 6 260 237 217 248 227 214 219 221 229 233 239 247 261 269 272 270 269 270 265 262 267 256 259 264 271 287 295 297 295 302 316 321 322 320 317 323 326 327 326 326 327 330 332 330 333 336 329 323 314 312 316 320 317 306 293 289 286 285 281
188 216 268 6 200 75 108 318 107 94 64 352 134 97 57 264 135 154 207 171 301 335 326 264 195 208 204 259 267 317 336 275 239 242 245 251 250 250 261 258 258 259 260 264 267 267 267 256 255 256 257 272 298 303 289 290 298 315 313 312 309 308 310 315 318 321 317 317 322 321 330 332 332 326 326 323 327 325 321 318 315 307 297 286 283 283
49 298 237 312 33 62 202 358 12 117 34 267 62 32 211 176 113 65 353 65 32 39 256 183 307 281 294 293 330 344 326 267 258 254 249 249 248 248 252 251 248 244 249 261 255 255 259 266 255 242 253 264 284 290 275 275 283 296 314 316 313 308 306 311 315 317 322 323 326 323 320 325 327 326 328 324 322 321 319 316 312 310 306 300 288 286
155 252 283 116 7 36 306 67 107 33 117 59 73 219 38 117 118 124 207 326 62 139 270 42 251 301 44 296 41 319 267 263 250 246 242 250 254 253 248 248 251 260 266 265 262 256 252 249 247 254 248 254 275 278 269 268 275 283 299 307 309 308 312 311 310 313 321 325 324 323 323 315 311 311 316 318 316 318 320 319 316 318 323 325 330 332
97 350 256 256 158 218 344 25 11 355 45 134 170 179 91 289 329 322 91 349 345 295 281 290 278 262 190 256 328 269 221 255 247 246 250 251 249 245 251 256 259 264 278 276 269 261 250 239 244 250 257 263 274 272 256 258 268 294 312 311 303 302 302 301 297 298 303 305 309 312 312 314 313 311 308 310 311 316 319 319 321 327 327 339 344 339
44 145 299 3 78 253 320 76 244 271 330 40 74 29 303 102 171 112 203 184 118 255 35 289 23 272 194 220 202 250 234 244 249 241 236 238 240 242 240 243 249 263 262 263 261 256 247 247 248 252 258 269 279 273 261 267 285 296 302 308 311 309 308 304 295 300 308 309 308 305 304 305 306 309 312 313 316 315 316 315 319 322 326 320 328 321
175 114 226 283 320 53 261 181 210 160 163 318 33 326 355 25 215 117 253 152 185 190 191 242 318 272 251 188 195 243 249 245 230 234 232 237 240 235 238 242 253 256 261 258 254 253 248 253 258 256 253 262 270 257 256 270 283 285 294 298 302 307 306 298 285 294 302 307 306 304 303 305 307 305 305 308 313 314 312 311 309 306 303 310 314 309
90 84 191 306 6 215 233 215 186 174 172 173 158 199 167 123 111 343 270 44 98 109 233 135 263 280 276 130 208 233 250 242 233 227 239 236 230 228 232 239 242 258 261 253 256 252 258 265 265 259 252 260 261 251 267 275 284 290 286 289 298 298 296 288 289 299 301 301 301 303 303 302 301 300 305 309 310 308 307 306 306 306 309 311 307 316
146 163 92 246 203 218 225 345 351 137 121 149 139 203 143 135 108 105 200 276 17 243 120 149 71 272 228 172 183 224 233 237 238 222 235 227 228 229 234 237 244 247 249 250 249 255 261 266 266 261 261 274 257 247 251 262 265 273 288 297 297 297 290 277 288 301 305 306 305 302 300 301 301 306 309 311 310 307 307 302 304 311 311 312 311 305
93 81 28 282 317 322 349 333 10 34 61 46 360 97 114 170 178 177 179 178 155 263 228 337 217 260 270 223 204 230 270 262 261 218 226 233 230 235 240 245 249 247 243 242 249 256 259 264 265 264 273 272 240 245 252 253 260 273 285 289 294 291 283 286 299 304 308 305 302 303 302 304 309 311 310 308 307 305 305 306 308 313 312 309 307 305
72 288 127 326 356 337 347 354 355 335 87 202 184 210 185 81 78 140 102 51 260 213 179 136 248 267 275 32 65 304 264 243 244 239 211 243 240 234 244 247 237 235 237 243 251 255 261 264 262 262 269 250 237 244 246 249 261 272 280 283 280 275 277 300 308 306 303 301 301 305 308 307 310 309 309 307 305 303 306 309 311 311 308 306 303 302
114 204 105 237 273 299 303 307 280 258 221 215 211 159 208 136 134 114 183 130 202 258 161 189 249 258 262 110 216 242 239 257 246 242 247 232 249 257 258 243 231 233 243 252 260 263 262 261 260 263 253 239 240 243 248 255 263 274 274 266 265 277 300 300 301 299 299 301 301 304 305 307 307 305 304 304 303 303 305 307 307 305 302 303 301 304
163 109 148 164 164 215 228 228 257 112 77 214 255 187 220 176 170 129 109 134 215 184 193 236 231 275 291 279 268 256 232 255 272 265 249 241 239 244 242 243 235 236 248 253 255 259 265 263 259 257 245 235 241 247 253 261 273 273 263 264 270 280 289 291 291 293 294 295 296 298 300 304 303 302 301 301 302 304 304 302 301 301 300 301 301 303
72 290 242 198 226 237 241 252 238 173 250 257 239 247 196 172 171 167 177 219 150 95 274 257 228 247 262 272 280 281 271 248 236 245 257 265 265 257 250 254 259 254 256 260 265 267 265 261 260 252 238 243 250 253 258 260 261 261 257 267 276 280 281 283 284 282 283 289 293 294 297 299 300 299 299 299 298 298 298 297 295 295 296 297 297 298
143 199 276 138 253 250 263 267 284 293 238 258 253 245 218 193 173 196 225 218 145 212 242 266 272 220 261 270 277 279 278 281 287 285 284 280 270 254 263 270 270 266 265 262 263 263 263 263 254 242 238 244 252 255 260 264 263 258 258 260 271 277 276 276 271 269 274 286 291 295 298 297 297 296 296 296 294 293 292 291 292 292 290 290 292 297
102 248 230 142 273 285 277 267 266 251 273 274 259 254 246 205 212 212 232 222 205 233 249 262 275 271 269 271 273 275 283 290 286 287 288 278 268 268 271 270 267 268 265 267 270 267 261 256 247 237 240 249 250 259 264 264 258 253 256 268 273 274 275 272 264 263 279 285 290 294 295 295 293 290 288 290 293 292 292 289 287 283 281 287 293 296
120 274 102 360 347 275 285 322 325 310 299 280 277 257 247 236 229 226 232 247 223 254 256 257 265 271 271 264 268 280 288 282 283 271 263 264 271 273 265 259 266 269 271 273 275 274 266 253 242 241 244 248 255 259 263 261 259 255 254 262 270 274 274 261 263 274 280 285 290 291 291 290 287 286 289 293 292 291 288 283 279 272 283 295 294 291
107 256 57 62 353 291 2 30 331 333 284 260 274 274 261 234 231 231 208 222 194 229 248 266 267 259 262 270 275 263 271 270 258 258 265 262 253 261 269 265 255 263 275 278 275 268 259 246 237 240 244 252 256 262 267 274 267 254 258 264 272 275 270 260 271 279 282 285 288 287 286 281 285 294 296 295 291 285 281 279 277 290 291 289 291 287
181 138 143 62 287 262 279 43 356 335 315 304 272 250 245 243 205 248 247 229 216 212 240 237 240 245 263 306 289 274 245 250 258 260 266 271 260 237 251 264 264 266 267 268 269 268 255 239 236 241 256 260 259 262 263 264 266 257 257 271 275 274 265 270 274 283 284 286 286 284 275 283 294 296 295 292 288 284 280 282 299 291 290 290 286 288
105 132 141 177 188 256 301 330 323 351 318 262 264 173 154 191 187 211 238 209 226 177 223 222 248 275 289 275 267 273 279 273 268 266 249 253 276 274 258 243 252 258 262 260 253 250 248 242 240 243 245 250 257 258 264 257 250 253 262 273 275 262 267 275 283 281 284 286 285 276 277 292 293 294 292 289 286 282 289 302 290 291 290 289 288 284
153 132 175 137 170 273 324 351 331 280 258 264 360 234 211 218 197 233 259 245 231 223 237 258 263 262 259 263 264 268 271 275 270 269 274 255 231 256 262 264 264 261 255 255 255 236 230 235 251 261 260 254 258 263 264 260 244 270 279 276 272 263 272 278 279 281 282 285 278 275 286 289 292 290 290 288 282 284 301 297 299 296 295 289 288 286
161 140 151 269 170 325 349 84 278 254 281 290 269 267 211 124 201 22 290 258 230 230 222 238 250 253 260 265 266 263 263 277 297 272 257 262 238 239 253 258 258 254 255 247 232 241 253 261 256 252 257 259 270 274 257 250 261 277 280 272 262 273 272 274 278 282 287 284 275 277 286 292 290 286 286 286 284 295 298 298 297 296 294 291 287 281
146 84 130 249 159 217 204 171 244 323 317 295 302 226 167 193 176 172 239 287 187 214 205 230 246 254 258 258 260 266 302 328 293 281 207 225 236 234 235 244 246 249 245 238 227 259 262 258 254 258 265 276 276 274 258 251 275 281 281 271 266 266 270 276 281 287 290 286 278 275 281 286 287 285 286 285 293 300 299 298 296 293 294 292 289 288
160 168 220 143 260 139 237 292 320 322 285 283 234 20 360 161 130 158 73 293 266 208 206 213 236 248 252 259 263 271 52 331 293 290 185 219 221 232 240 236 242 237 221 244 260 256 253 262 267 274 274 284 282 251 244 262 274 279 271 264 263 269 280 284 287 289 288 285 277 274 278 281 283 283 282 286 294 294 293 292 291 291 294 292 293 292
34 74 145 175 244 50 151 190 226 218 258 275 175 159 164 162 139 120 11 287 283 203 207 203 229 239 241 246 255 91 73 287 282 292 218 211 216 208 222 229 223 227 236 234 229 248 249 243 250 264 278 273 264 250 252 269 278 276 273 268 269 271 283 289 291 290 287 282 277 278 279 279 278 277 279 289 292 290 293 294 292 294 296 289 287 286
102 1 73 238 238 212 152 219 254 216 255 276 154 169 201 161 108 50 321 279 269 206 196 192 216 231 234 234 206 173 194 258 279 291 178 197 187 196 193 220 232 227 218 209 224 220 235 253 280 282 271 260 256 263 274 277 275 267 267 270 268 280 285 289 289 287 284 280 278 275 281 281 278 270 276 289 289 290 288 289 293 294 292 290 286 284
190 272 172 226 233 222 188 262 342 275 263 233 184 168 173 181 86 333 259 273 215 187 199 189 214 222 221 226 165 217 221 219 255 274 288 156 177 192 209 216 224 211 219 212 223 214 240 251 256 261 255 246 259 270 277 278 274 268 264 270 279 279 284 285 285 287 286 285 279 276 279 281 271 275 283 274 278 284 289 289 290 290 287 287 285 280
279 130 290 57 237 229 219 205 246 279 270 201 197 153 167 115 244 239 244 271 148 216 201 199 219 223 210 219 209 223 249 247 251 260 265 250 238 235 201 208 204 215 209 200 212 238 270 263 250 251 255 256 272 279 276 270 266 270 268 273 274 279 286 284 284 285 286 284 281 280 280 275 273 281 279 285 287 294 289 287 282 279 280 282 283 286
192 151 217 191 219 63 73 267 342 287 296 104 123 97 215 166 229 243 291 286 194 214 180 219 217 236 203 240 231 236 250 260 261 259 259 255 228 239 228 212 214 216 224 230 260 255 241 258 252 246 245 257 262 265 266 258 265 264 267 267 273 282 283 281 281 281 280 281 285 284 281 275 281 281 285 291 295 291 289 288 288 285 284 284 286 285
187 205 253 251 176 177 180 174 213 231 90 155 142 196 200 212 246 259 314 283 237 196 224 244 232 226 226 233 254 259 259 267 276 266 259 246 226 235 226 214 214 216 223 229 228 248 242 246 244 245 249 255 262 261 259 258 267 264 264 266 274 279 279 278 278 275 276 279 281 284 287 281 277 276 282 286 290 289 289 292 290 290 286 282 282 286
181 201 183 250 194 167 235 222 244 150 171 203 210 250 249 234 254 271 285 275 287 274 220 228 264 258 228 239 254 264 277 264 265 264 251 261 252 233 239 237 226 231 237 244 250 252 245 239 249 254 260 254 264 260 254 247 256 265 264 267 273 279 280 279 278 273 277 273 275 287 286 284 275 276 282 283 283 288 292 295 299 298 296 291 287 285
284 178 72 18 252 267 282 270 269 266 230 223 240 254 269 274 262 251 254 272 268 267 266 261 268 271 268 236 244 262 254 261 264 267 248 252 243 247 238 237 232 225 233 241 258 257 237 245 255 263 269 270 253 260 248 250 242 258 260 265 272 275 273 277 275 277 274 268 281 285 284 285 287 284 281 278 273 272 276 290 302 301 299 294 287 281
258 111 128 243 274 20 280 290 260 260 272 245 238 249 252 256 263 264 263 256 263 270 273 270 266 267 267 258 232 253 266 260 252 259 250 242 245 244 235 233 234 222 230 250 252 247 258 251 264 264 268 274 267 254 252 249 249 247 260 266 269 269 272 270 273 276 273 274 280 281 277 271 279 285 284 279 280 273 282 294 292 291 290 287 285 290
334 125 228 245 260 238 262 282 298 294 286 275 239 255 260 261 259 256 250 252 259 264 265 267 271 273 267 257 245 249 264 264 238 260 255 239 241 246 244 233 234 239 239 233 247 252 258 253 255 268 272 274 274 263 256 253 254 255 256 263 267 269 270 271 271 271 270 274 276 275 265 263 280 284 287 280 275 292 298 290 285 287 290 296 300 300
188 101 253 169 265 268 276 278 272 283 287 283 257 224 245 260 266 272 268 265 264 266 270 274 267 264 270 265 270 251 265 264 233 245 258 261 260 242 239 235 228 227 232 244 252 238 242 255 263 261 266 272 273 269 265 258 257 255 258 262 267 269 269 270 272 274 277 277 277 269 259 257 264 269 274 277 278 270 263 281 293 292 289 277 266 264
44 273 233 15 293 292 292 298 315 318 309 309 306 306 298 265 260 268 281 282 277 272 274 280 285 277 248 260 253 254 256 268 259 237 258 263 263 261 250 229 222 225 239 241 239 239 251 253 256 265 268 272 271 271 269 267 260 255 255 261 265 266 266 269 272 275 274 270 267 259 260 266 266 265 267 267 283 294 291 278 293 295 291 294 295 293
197 246 119 261 280 290 293 296 301 293 286 285 289 295 302 307 276 284 283 288 292 289 286 280 288 296 280 258 223 228 252 260 267 269 277 276 263 249 235 224 227 235 241 241 251 264 251 257 259 264 270 272 274 272 271 271 268 265 265 262 263 259 261 263 272 272 272 270 261 253 251 258 270 268 255 258 275 288 296 305 294 295 299 297 296 298